Location: Austin
(30.3000°N, 97.7500°W)
Time: 08:23:22
(UTC-06:00)

Fermi - Pass Details

Date: 19 November 2025
Orbit: 492 x 503 km, 25.6° (Epoch: 07 December)

Event Time Altitude Azimuth Distance (km) Brightness Sun altitude
Rises 19:54:48 0° 259° (W) 2,566 8.4 -30.5°
Reaches altitude 10° 19:57:47 10° 236° (SW) 1,686 7.0 -31.2°
Enters shadow 19:58:44 13° 222° (SW) 1,505 6.5 -31.4°
